timestamp,wind_dir_avg,wind_spd_avg,wind_spd_max_dir,wind_spd_gust,battery_voltage,lat,long
2021-04-03 00:04:01+00:00,178.0,1.16,182.0,1.6,12.65,47.59359,-54.27349
2021-04-03 00:14:01+00:00,174.0,1.39,171.0,1.74,12.49,47.59359,-54.27349
2021-04-03 00:24:01+00:00,178.0,1.02,178.0,1.12,12.49,47.59359,-54.27349
2021-04-03 00:34:01+00:00,171.0,1.13,172.0,1.29,12.49,47.59359,-54.27349
2021-04-03 00:44:01+00:00,165.0,0.98,173.0,1.18,12.49,47.59359,-54.27349
2021-04-03 00:54:01+00:00,153.0,1.86,163.0,2.61,12.49,47.59359,-54.27349
2021-04-03 01:04:01+00:00,140.0,2.28,138.0,2.75,12.49,47.59359,-54.27349
2021-04-03 01:14:01+00:00,152.0,2.62,149.0,2.83,12.49,47.59359,-54.27349
2021-04-03 01:24:01+00:00,184.0,1.75,182.0,1.89,12.49,47.59359,-54.27349
2021-04-03 01:34:01+00:00,159.0,1.39,159.0,1.51,12.49,47.59359,-54.27349
2021-04-03 01:44:01+00:00,164.0,1.67,175.0,2.15,12.49,47.59359,-54.27349
2021-04-03 01:54:01+00:00,147.0,1.34,162.0,1.64,12.49,47.59359,-54.27349
2021-04-03 02:04:01+00:00,143.0,2.45,143.0,2.7,12.49,47.59359,-54.27349
2021-04-03 02:14:01+00:00,176.0,2.16,179.0,2.35,12.49,47.59359,-54.27349
2021-04-03 02:24:01+00:00,202.0,1.61,202.0,1.72,12.49,47.59359,-54.27349
2021-04-03 02:34:01+00:00,209.0,1.66,211.0,1.74,12.49,47.59359,-54.27349
2021-04-03 02:44:01+00:00,216.0,1.21,215.0,1.27,12.49,47.59359,-54.27349
2021-04-03 02:54:01+00:00,252.0,0.54,256.0,0.63,12.49,47.59359,-54.27349
2021-04-03 03:04:01+00:00,141.0,0.59,146.0,0.78,12.49,47.59359,-54.27349
2021-04-03 03:14:01+00:00,172.0,0.54,174.0,0.67,12.41,47.59359,-54.27349
2021-04-03 03:24:01+00:00,249.0,1.05,249.0,1.2,12.41,47.59359,-54.27349
2021-04-03 03:34:01+00:00,287.0,1.61,289.0,1.86,12.41,47.59359,-54.27349
2021-04-03 03:44:01+00:00,312.0,1.3,312.0,1.45,12.41,47.59359,-54.27349
2021-04-03 03:54:01+00:00,312.0,1.54,313.0,1.61,12.41,47.59359,-54.27349
2021-04-03 04:04:01+00:00,343.0,1.14,342.0,1.19,12.41,47.59359,-54.27349
2021-04-03 04:14:01+00:00,28.0,1.5,27.0,1.7,12.41,47.59359,-54.27349
2021-04-03 04:24:01+00:00,31.0,1.97,31.0,2.16,12.41,47.59359,-54.27349
2021-04-03 04:34:01+00:00,31.0,2.29,31.0,2.4,12.41,47.59359,-54.27349
2021-04-03 04:44:01+00:00,50.0,2.4,51.0,2.66,12.41,47.59359,-54.27349
2021-04-03 04:54:01+00:00,51.0,2.28,50.0,2.45,12.41,47.59359,-54.27349
2021-04-03 05:04:01+00:00,55.0,2.81,57.0,3.05,12.41,47.59359,-54.27349
2021-04-03 05:14:01+00:00,54.0,3.09,56.0,3.32,12.41,47.59359,-54.27349
2021-04-03 05:24:01+00:00,50.0,2.81,46.0,3.3,12.41,47.59359,-54.27349
2021-04-03 05:34:01+00:00,48.0,2.33,49.0,2.89,12.41,47.59359,-54.27349
2021-04-03 05:44:01+00:00,53.0,3.4,60.0,3.9,12.41,47.59359,-54.27349
2021-04-03 05:54:01+00:00,59.0,3.33,66.0,4.58,12.41,47.59359,-54.27349
2021-04-03 06:04:01+00:00,49.0,3.32,54.0,3.66,12.41,47.59359,-54.27349
2021-04-03 06:14:01+00:00,44.0,3.2,54.0,4.16,12.41,47.59359,-54.27349
2021-04-03 06:24:01+00:00,41.0,3.41,58.0,4.66,12.41,47.59359,-54.27349
2021-04-03 06:34:01+00:00,56.0,3.37,70.0,5.15,12.41,47.59359,-54.27349
2021-04-03 06:44:01+00:00,71.0,1.72,70.0,3.38,12.41,47.59359,-54.27349
2021-04-03 06:54:01+00:00,60.0,2.68,61.0,4.3,12.41,47.59359,-54.27349
2021-04-03 07:04:01+00:00,50.0,2.89,66.0,4.4,12.41,47.59359,-54.27349
2021-04-03 07:14:01+00:00,70.0,2.63,69.0,4.02,12.41,47.59359,-54.27349
2021-04-03 07:24:01+00:00,64.0,2.28,82.0,4.05,12.41,47.59359,-54.27349
2021-04-03 07:34:01+00:00,58.0,3.12,62.0,3.75,12.41,47.59359,-54.27349
2021-04-03 07:44:01+00:00,59.0,2.37,68.0,3.88,12.41,47.59359,-54.27349
2021-04-03 07:54:01+00:00,68.0,2.52,66.0,4.44,12.41,47.59359,-54.27349
2021-04-03 08:04:01+00:00,68.0,1.6,95.0,2.72,12.41,47.59359,-54.27349
2021-04-03 08:14:01+00:00,78.0,1.82,68.0,3.29,12.33,47.59359,-54.27349
2021-04-03 08:24:01+00:00,70.0,3.56,75.0,4.71,12.33,47.59359,-54.27349
2021-04-03 08:34:01+00:00,73.0,3.35,73.0,4.27,12.33,47.59359,-54.27349
2021-04-03 08:44:01+00:00,70.0,3.15,66.0,4.27,12.33,47.59359,-54.27349
2021-04-03 08:54:01+00:00,78.0,2.34,89.0,3.32,12.33,47.59359,-54.27349
2021-04-03 09:04:01+00:00,64.0,1.69,84.0,2.33,12.33,47.59359,-54.27349
2021-04-03 09:14:01+00:00,74.0,2.21,70.0,3.55,12.33,47.59359,-54.27349
2021-04-03 09:24:01+00:00,78.0,2.88,75.0,3.84,12.33,47.59359,-54.27349
2021-04-03 09:34:01+00:00,76.0,2.34,88.0,3.01,12.33,47.59359,-54.27349
2021-04-03 09:44:01+00:00,77.0,3.02,81.0,3.5,12.33,47.59359,-54.27349
2021-04-03 09:54:01+00:00,77.0,3.18,73.0,3.68,12.33,47.59359,-54.27349
2021-04-03 10:04:01+00:00,106.0,2.12,109.0,3.42,12.33,47.59359,-54.27349
2021-04-03 10:14:01+00:00,116.0,2.47,125.0,3.57,12.41,47.59359,-54.27349
2021-04-03 10:24:01+00:00,124.0,3.4,126.0,4.06,12.41,47.59359,-54.27349
2021-04-03 10:34:01+00:00,127.0,3.53,128.0,3.86,12.41,47.59359,-54.27349
2021-04-03 10:44:01+00:00,104.0,1.95,92.0,2.73,12.41,47.59359,-54.27349
2021-04-03 10:54:01+00:00,73.0,1.17,79.0,1.62,12.41,47.59359,-54.27349
2021-04-03 11:04:01+00:00,77.0,3.08,70.0,3.66,12.41,47.59359,-54.27349
2021-04-03 11:14:01+00:00,63.0,2.41,70.0,3.18,13.05,47.59359,-54.27349
2021-04-03 11:24:01+00:00,67.0,2.15,67.0,2.65,13.05,47.59359,-54.27349
2021-04-03 11:34:01+00:00,82.0,1.63,108.0,2.44,13.05,47.59359,-54.27349
2021-04-03 11:44:01+00:00,65.0,1.12,69.0,1.28,13.05,47.59359,-54.27349
2021-04-03 11:54:01+00:00,64.0,1.24,64.0,1.51,13.05,47.59359,-54.27349
2021-04-03 12:04:01+00:00,100.0,1.05,112.0,1.57,13.05,47.59359,-54.27349
2021-04-03 12:14:01+00:00,141.0,1.34,131.0,1.62,13.84,47.59359,-54.27349
2021-04-03 12:24:01+00:00,184.0,1.67,197.0,2.1,13.84,47.59359,-54.27349
2021-04-03 12:34:01+00:00,188.0,2.8,182.0,3.19,13.84,47.59359,-54.27349
2021-04-03 12:44:01+00:00,181.0,2.31,178.0,3.4,13.84,47.59359,-54.27349
2021-04-03 12:54:01+00:00,16.0,1.3,6.0,1.6,13.84,47.59359,-54.27349
2021-04-03 13:04:01+00:00,37.0,2.22,38.0,2.59,13.84,47.59359,-54.27349
2021-04-03 13:14:01+00:00,51.0,2.07,52.0,2.49,13.92,47.59359,-54.27349
2021-04-03 13:24:01+00:00,138.0,5.04,132.0,6.18,13.92,47.59359,-54.27349
2021-04-03 13:34:01+00:00,147.0,3.59,139.0,4.47,13.92,47.59359,-54.27349
2021-04-03 13:44:01+00:00,148.0,2.68,135.0,3.68,13.92,47.59359,-54.27349
2021-04-03 13:54:01+00:00,140.0,1.89,139.0,2.14,13.92,47.59359,-54.27349
2021-04-03 14:04:01+00:00,62.0,0.86,58.0,1.45,13.92,47.59359,-54.27349
2021-04-03 14:14:01+00:00,61.0,1.75,69.0,2.56,14.0,47.59359,-54.27349
2021-04-03 14:24:01+00:00,117.0,1.09,141.0,1.82,14.0,47.59359,-54.27349
2021-04-03 14:34:01+00:00,236.0,0.99,217.0,1.41,14.0,47.59359,-54.27349
2021-04-03 14:44:01+00:00,359.0,1.04,355.0,1.33,14.0,47.59359,-54.27349
2021-04-03 14:54:01+00:00,22.0,0.59,9.0,1.05,14.0,47.59359,-54.27349
2021-04-03 15:04:01+00:00,32.0,0.54,30.0,0.72,14.0,47.59359,-54.27349
2021-04-03 15:14:01+00:00,40.0,1.19,35.0,1.4,13.68,47.59359,-54.27349
2021-04-03 15:24:01+00:00,28.0,1.7,25.0,2.33,13.68,47.59359,-54.27349
2021-04-03 15:34:01+00:00,42.0,2.25,47.0,3.35,13.68,47.59359,-54.27349
2021-04-03 15:44:01+00:00,50.0,4.26,49.0,4.68,13.68,47.59359,-54.27349
2021-04-03 15:54:01+00:00,52.0,3.04,47.0,3.29,13.68,47.59359,-54.27349
2021-04-03 16:04:01+00:00,39.0,3.29,40.0,4.21,13.68,47.59359,-54.27349
2021-04-03 16:14:01+00:00,33.0,2.86,34.0,3.37,14.32,47.59359,-54.27349
2021-04-03 16:24:01+00:00,31.0,1.74,32.0,2.6,14.32,47.59359,-54.27349
2021-04-03 16:34:01+00:00,38.0,2.43,37.0,3.11,14.32,47.59359,-54.27349
2021-04-03 16:44:01+00:00,36.0,2.13,36.0,2.68,14.32,47.59359,-54.27349
2021-04-03 16:54:01+00:00,46.0,1.9,40.0,2.37,14.32,47.59359,-54.27349
2021-04-03 17:04:01+00:00,37.0,2.34,36.0,2.52,14.32,47.59359,-54.27349
2021-04-03 17:14:01+00:00,40.0,1.83,41.0,2.01,14.32,47.59359,-54.27349
2021-04-03 17:24:01+00:00,45.0,2.04,42.0,2.43,14.32,47.59359,-54.27349
2021-04-03 17:34:01+00:00,30.0,1.69,32.0,1.87,14.32,47.59359,-54.27349
2021-04-03 17:44:01+00:00,1.0,1.04,346.0,1.35,14.32,47.59359,-54.27349
2021-04-03 17:54:01+00:00,312.0,0.99,314.0,1.18,14.32,47.59359,-54.27349
2021-04-03 18:04:01+00:00,247.0,1.39,244.0,1.56,14.32,47.59359,-54.27349
2021-04-03 18:14:01+00:00,250.0,2.29,248.0,2.45,14.24,47.59359,-54.27349
2021-04-03 18:24:01+00:00,235.0,2.2,239.0,2.83,14.24,47.59359,-54.27349
2021-04-03 18:34:01+00:00,217.0,3.35,221.0,3.72,14.24,47.59359,-54.27349
2021-04-03 18:44:01+00:00,201.0,2.71,202.0,2.81,14.24,47.59359,-54.27349
2021-04-03 18:54:01+00:00,198.0,3.61,194.0,4.12,14.24,47.59359,-54.27349
2021-04-03 19:04:01+00:00,230.0,4.3,230.0,4.84,14.24,47.59359,-54.27349
2021-04-03 19:14:01+00:00,225.0,4.11,217.0,4.99,13.92,47.59359,-54.27349
2021-04-03 19:24:01+00:00,231.0,2.7,232.0,3.15,13.92,47.59359,-54.27349
2021-04-03 19:34:01+00:00,203.0,3.2,195.0,4.11,13.92,47.59359,-54.27349
2021-04-03 19:44:01+00:00,220.0,3.26,222.0,3.85,13.92,47.59359,-54.27349
2021-04-03 19:54:01+00:00,198.0,3.67,203.0,4.49,13.92,47.59359,-54.27349
2021-04-03 20:04:01+00:00,197.0,2.34,185.0,3.61,13.92,47.59359,-54.27349
2021-04-03 20:14:01+00:00,155.0,5.36,153.0,5.98,13.84,47.59359,-54.27349
2021-04-03 20:24:01+00:00,153.0,7.47,153.0,8.35,13.84,47.59359,-54.27349
2021-04-03 20:34:01+00:00,149.0,6.69,151.0,7.38,13.84,47.59359,-54.27349
2021-04-03 20:44:01+00:00,149.0,7.02,152.0,7.94,13.84,47.59359,-54.27349
2021-04-03 20:54:01+00:00,145.0,6.68,148.0,7.28,13.84,47.59359,-54.27349
2021-04-03 21:04:01+00:00,145.0,4.14,145.0,4.76,13.84,47.59359,-54.27349
2021-04-03 21:14:01+00:00,159.0,2.81,159.0,3.32,13.53,47.59359,-54.27349
2021-04-03 21:24:01+00:00,116.0,1.81,87.0,2.98,13.53,47.59359,-54.27349
2021-04-03 21:34:01+00:00,133.0,4.14,131.0,5.2,13.53,47.59359,-54.27349
2021-04-03 21:44:01+00:00,139.0,5.0,138.0,6.51,13.53,47.59359,-54.27349
2021-04-03 21:54:01+00:00,144.0,6.53,145.0,6.97,13.53,47.59359,-54.27349
2021-04-03 22:04:01+00:00,142.0,5.83,143.0,6.43,13.53,47.59359,-54.27349
2021-04-03 22:14:01+00:00,142.0,7.02,157.0,8.98,13.13,47.59359,-54.27349
2021-04-03 22:24:01+00:00,135.0,4.85,131.0,5.81,13.13,47.59359,-54.27349
2021-04-03 22:34:01+00:00,136.0,5.29,143.0,6.81,13.13,47.59359,-54.27349
2021-04-03 22:44:01+00:00,135.0,6.59,141.0,7.61,13.13,47.59359,-54.27349
2021-04-03 22:54:01+00:00,135.0,6.15,140.0,7.58,13.13,47.59359,-54.27349
2021-04-03 23:04:01+00:00,145.0,6.68,153.0,7.79,13.13,47.59359,-54.27349
2021-04-03 23:14:01+00:00,145.0,6.75,146.0,7.5,12.65,47.59359,-54.27349
2021-04-03 23:24:01+00:00,146.0,6.74,145.0,7.26,12.65,47.59359,-54.27349
2021-04-03 23:34:01+00:00,129.0,5.52,135.0,6.37,12.65,47.59359,-54.27349
2021-04-03 23:44:01+00:00,136.0,7.01,139.0,7.96,12.65,47.59359,-54.27349
2021-04-03 23:54:01+00:00,119.0,5.97,128.0,8.27,12.65,47.59359,-54.27349
